Location: Augustenthal
(51.7167°N, 10.2833°E)
Time: 20:37:09
(UTC+00:00)

Cosmos 2369 Rocket - Pass Details

Date: 18 May 2021
Orbit: 827 x 854 km, 71.0° (Epoch: 23 June)

Event Time Altitude Azimuth Distance (km) Brightness Sun altitude
Exits shadow 20:26:43 10° 160° (SSE) 2,427 4.0 -9.6°
Maximum altitude 20:31:19 28° 104° (ESE) 1,541 3.2 -10.1°
Drops below altitude 10° 20:36:01 10° 48° (NE) 2,470 4.7 -10.5°
Sets 20:38:47 0° 37° (NE) 3,415 5.6 -10.8°
